2019-022D (44485 NORAD) Tracking and Keplerian Element Data

This shows tracking and keplerian element data for the satellite.

Feedback or suggestion? Click here.




ElementValue
Catalog44485
Name2019-022D
Epoch Orbit121
Epoch Day227.17387624
Epoch Year2019
RAAN69.948
Inclination51.6438
Eccentricity0.0009384
Argument of Perigee286.4637
Mean Anonmoly73.5391
Mean Motion15.29241148
Decay Rate2.909E-05
L11 44485U 19022D 19227.17387624 .00002909 00000-0 11343-3 0 9993
L22 44485 51.6438 69.9480 0009384 286.4637 73.5391 15.29241148 1219

Live tracking and technical data element details for 2019-022D (NORAD 44485). 2019-022D can be tracked NOW for your location showing map with azimuth and elevation plus other details from your city location.

Track the satellite on the map from your city or location and see movement details for azimuth, elevation, latitude, longitude, range, height, and movement on the map or in text.







IsCatalogInMostPopularTable: catalog: 44485, numindb: 3
Update: records affected: 1



GetName: 44485 2019-022D

Hit Count: updated at: Wed, 21 Aug 2019 11:42:35 GMT